Погода в Поповке

Украина / Полтавская область     50°05′46″N   33°38′03″E
темп.,
°C
ветер,
м/с
пор.,
м/с
влажн.,
%
обл.,
%
осадки,
мм/ч
давл.,
гПа
погр.,
м
8 мая, сб
сб800:00+12ю41175100 1.1 1010374
03:00+11ю61288100 2.2 1009580
06:00+12ююв71590100 0.2 1006603
09:00+11ююз71295100 2.3 1005697
12:00+11з51094100 5.3 1006554
15:00+9зсз91288100 5.6 1009641
18:00+9зсз7118285 0.1 10111037
21:00+6сз71288100 0.2 1015886
9 мая, вс
вс900:00+4зсз512895 0.0 1016449
03:00+4сз512920 0.0 1017435
06:00+3зсз411900 0.0 1020360
09:00+8сз69633 0.0 1021896
12:00+11сз8105281 0.0 10222083
15:00+13ссз8104468 0.0 10232563
18:00+12ссз58535 0.0 10242221
21:00+7ссз34692 0.0 102762
10 мая, пн
пн1000:00+5ссз34715 0.0 102842
03:00+4ссз337319 0.0 102840
06:00+4ссв34755 0.0 103067
09:00+10с34570 0.0 1030458
12:00+14ссв45435 0.0 10291806
15:00+15с57435 0.0 10281913
18:00+14ссв58555 0.0 10261609
21:00+9с49760 0.0 1027156
11 мая, вт
вт1100:00+7с41280100 0.0 1026255
03:00+7с61472100 0.0 1025355
06:00+8ссв61365100 0.0 1023462
09:00+11ссв6126660 0.0 1022524
12:00+15св8116496 0.0 1021866
15:00+12св61078100 0.0 1021966
18:00+12всв51178100 0.1 1022740
21:00+8св368910 0.2 1021111
12 мая, ср
ср1200:00+8всв51285100 0.0 1020473
03:00+6св4118846 0.0 1019342
06:00+7св51083100 0.0 1018391
09:00+9всв61080100 0.0 1018742
12:00+9в698610 0.6 1016675
15:00+10вюв81187100 3.0 10161298
18:00+9вюв7129199 1.4 1016787
21:00+9вюв61193100 1.7 1015595